Weather in Piekary Slaskie

Poland     50°22′27″N   18°56′38″E
temp.,
°C
wind,
m/s
gust,
m/s
humid.,
%
clouds,
%
prec.,
mm/h
press.,
hPa
HPBL,
m
18 april, sun
sun1823:00+3nw0198100 0.0 1021102
02:00+3nw1198100 0.1 102076
05:00+3sw0198100 0.1 101972
08:00+4se1196100 0.1 1020190
11:00+5ese2385100 0.0 1020683
14:00+7e2371100 0.1 1019890
17:00+8e2470100 0.0 1019810
20:00+7ene2381100 0.0 1019110
19 april, mon
mon1923:00+6ene2482100 0.0 1019100
02:00+6nne2382100 0.0 101969
05:00+6nne2685100 0.0 1018143
08:00+6nne2494100 0.9 1018206
11:00+7n1394100 1.3 1018188
14:00+8nw2491100 1.3 1017290
17:00+11nne2571100 0.6 1015739
20:00+8ene379199 1.5 1016303
20 april, tue
tue2023:00+7ene269476 0.6 1016166
02:00+6ene239290 0.6 1016102
05:00+5nne239275 0.0 101664
08:00+7ene258041 0.0 1016285
11:00+10ne4456100 0.1 10151632
14:00+13ne134880 0.1 10141680
17:00+11n236088 0.1 1014904
20:00+9ne126595 0.1 101439
21 april, wed
wed2123:00+8n116746 0.0 101411
02:00+6w11745 0.0 101517
05:00+5wsw228355 0.0 101447
08:00+8wsw357367 0.0 1014267
11:00+12w355779 0.1 10141331
14:00+14wnw455163 1.0 10121675
17:00+15w46446 0.1 10111924
20:00+11wnw367071 0.9 1012299
22 april, thu
thu2223:00+9w388199 0.3 1013280
02:00+7nw399050 0.4 1015499
05:00+6nw3781100 0.1 1015795
08:00+5wnw3680100 0.8 1017656
11:00+6wnw4656100 0.0 1018883
14:00+9wnw5645100 0.0 10171706
17:00+9wnw4645100 0.0 10171770
20:00+6wnw485760 0.1 1019808